Regional Weather Roundup
Issued by NWS Burlington, VT

Home | Current Version | Previous Version | Text Only | Print | Product List | Glossary On
Versions: 1 2 3 4 5 6 7 8 9 10 11 12 13 14 15 16 17 18 19 20 21 22 23 24 25 26 27 28 29 30 31 32 33 34 35 36 37 38 39 40 41 42 43 44 45 46 47 48 49 50
000
ASUS41 KBTV 261910
RWRBTV
VERMONT REGIONAL WEATHER ROUNDUP
NATIONAL WEATHER SERVICE BURLINGTON VT
200 PM EST SUN FEB 26 2017

NOTE: "FAIR" INDICATES FEW OR NO CLOUDS BELOW 12,000 FEET WITH NO
SIGNIFICANT WEATHER AND/OR OBSTRUCTIONS TO VISIBILITY.

* THESE REPORTS ARE NOT UNDER NWS QUALITY CONTROL AND/OR DO NOT
  REPORT WEATHER SUCH AS PRECIPITATION AND FOG.

VTZ001>019-262000-
_____VERMONT_____


CITY           SKY/WX    TMP DP  RH WIND       PRES   REMARKS
BURLINGTON     PTSUNNY   34  10  37 NW18G25   29.93R WCI  23
MONTPELIER     PTSUNNY   30  12  47 W20G29    29.88R WCI  17
MORRISVILLE    CLOUDY    29  10  45 W10G21    29.88R WCI  20
ST. JOHNSBURY*   N/A     31  14  49 MISG      29.83R
LYNDONVILLE*   FAIR      28  16  60 SW20G26   29.82S WCI  15
MIDDLEBURY*    FAIR      32  -7  18 N17G23    29.92R WCI  21
RUTLAND*       PTSUNNY   32  14  47 W9G18     29.91R WCI  24
SPRINGFIELD    CLOUDY    33  11  39 NW15G30   29.90R WCI  23
HIGHGATE*      FAIR      29  15  55 NW8       29.93R WCI  21
NEWPORT*       CLOUDY    26  14  60 W13G18    29.85R WCI  15
BENNINGTON     MOSUNNY   33  13  43 NW14G26   29.94R WCI  23
SUTTON*          N/A     25 N/A N/A MISG        N/A

_____LAKE CHAMPLAIN_____


CITY           SKY/WX    TMP DP  RH WIND       PRES   REMARKS

$$

NYZ007-026>031-035-052-083-087-262000-
_____NORTHERN NEW YORK_____


CITY           SKY/WX    TMP DP  RH WIND       PRES   REMARKS
PLATTSBURGH    SUNNY     33   6  32 NW10G24   29.93R WCI  25
SARANAC LAKE   PTSUNNY   26  12  55 W12G24    29.86R WCI  16
MASSENA        SUNNY     33  12  41 W20G26    29.98R WCI  21
OGDENSBURG*    FAIR      36  14  41 W14       29.98S WCI  27
POTSDAM*       PTSUNNY   32  14  47 W14G24    29.97R WCI  22
WATERTOWN      CLOUDY    34  21  59 W14G28    30.02R WCI  25
FT DRUM        PTSUNNY   32  15  50 W18G24    29.98R WCI  20
ALBANY         CLOUDY    35  15  44 NW18G29   30.01R WCI  24
GLENS FALLS    CLOUDY    34  15  46 W12       29.97R WCI  25

$$
NHZ002-005-011-262000-
_____NEW HAMPSHIRE_____


CITY           SKY/WX    TMP DP  RH WIND       PRES   REMARKS
LEBANON        CLOUDY    35  14  42 W15G23    29.87R WCI  25
KEENE          PTSUNNY   36  13  38 NW15G28   29.90R WCI  27
MT WASHINGTON  FOG        3   3 100 W68G79      N/A  VSB 1/16WCI -30
PLYMOUTH       FAIR      35  10  35 NW18G24   29.82R WCI  24
WHITEFIELD     CLOUDY    30  15  53 NW17G25   29.81R WCI  18

$$

_____REGIONAL QUEBEC LOCATIONS_____


CITY           SKY/WX    TMP DP  RH WIND       PRES   REMARKS
MONTREAL       PTSUNNY   27   9  46 W17G25    29.94R WCI  14
QUEBEC CITY    FLURRIES  25  14  63 W22G28    29.78R WCI  10
SHERBROOKE     LGT SNOW  21  16  79 W15G23    29.83R WCI   8

_____REGIONAL ONTARIO LOCATIONS_____


CITY           SKY/WX    TMP DP  RH WIND       PRES   REMARKS
OTTAWA         MOSUNNY   28  12  50 W14       29.95R WCI  17

______KEY______
VSB  - VISIBILITY IN MILES
WCI  - WIND CHILL INDEX
HX   - HEAT INDEX
$$
NNNN



USA.gov is the U.S. government's official web portal to all federal, state and local government web resources and services.